Flag Weather past 2 weeks in Brussels, Belgium

Now
47 °F

Cool.


Feels Like: 44 °F
Forecast: 36 / 46 °F
Wind: 6 mph from Southeast

Location: Uccle

Current Time: Nov 28, 2014 at 8:35:51 AM

Latest Report: Nov 28, 2014 at 7:00 AM


Visibility: N/A

Pressure: 29.67 "Hg

Humidity: 91%

Dew point: 44 °F

Location of BrusselsLocation

Historic Weather in Brussels — Graph

°F

Brussels temperature yesterday

Maximum temperature yesterday: 52 °F (at 1:00 PM)
Minimum temperature yesterday: 49 °F (at 8:00 AM)
Average temperature yesterday: 49 °F

Past Weeks' High & Low Weather Summary

 TemperatureHumidityPressure
High60 °F (Nov 23, 3:00 PM)96% (Nov 15, 6:00 AM)30.35 "Hg (Nov 15, 6:00 AM)
Low35 °F (Nov 21, 9:00 AM)63% (Nov 24, 3:00 PM)29.50 "Hg (Nov 16, 2:00 PM)
Average47 °F88%29.91 "Hg
* Reported Nov 13 7:00 AM — Nov 28 7:00 AM, Brussels, Weather by CustomWeather, © 2014

Note: Actual official high and low records may vary slightly from our data, if they occured in-between our weather recording intervals... More about our weather records

Advertising

Brussels weather history for previous 24 hours

 ConditionsComfort  
Time TempWeatherWind HumidityBarometerVisibility
7:00 AM
Nov 28
47 °FCool.6 mph91%29.67 "HgN/A
6:00 AM46 °FCool.6 mph92%29.66 "HgN/A
5:00 AM46 °FCool.5 mph93%29.66 "HgN/A
4:00 AM46 °FCool.3 mph92%29.67 "HgN/A
3:00 AM48 °FCool.3 mph90%29.67 "HgN/A
2:00 AM49 °FCool.5 mph91%29.67 "HgN/A
1:00 AM49 °FCool.5 mph90%29.67 "HgN/A
12:00 AM50 °FCool.5 mph92%29.68 "HgN/A
11:00 PM
Nov 27
49 °FCool.5 mph93%29.67 "HgN/A
10:00 PM50 °FCool.5 mph93%29.67 "HgN/A
9:00 PM49 °FCool.2 mph94%29.68 "HgN/A
8:00 PM49 °FCool.2 mph94%29.68 "HgN/A
7:00 PM49 °FCool.2 mph94%29.68 "HgN/A
6:00 PM49 °FCool.3 mph93%29.68 "HgN/A
5:00 PM49 °FCool.3 mph92%29.68 "HgN/A
4:00 PM50 °FCool.3 mph91%29.67 "HgN/A
3:00 PM51 °FCool.3 mph90%29.68 "HgN/A
2:00 PM51 °FCool.2 mph88%29.69 "HgN/A
1:00 PM52 °FCool.2 mph86%29.71 "HgN/A
12:00 PM51 °FCool.3 mph88%29.73 "HgN/A
11:00 AM50 °FCool.3 mph90%29.74 "HgN/A
10:00 AM49 °FCool.3 mph92%29.75 "HgN/A
9:00 AM49 °FCool.3 mph91%29.75 "HgN/A
8:00 AM49 °FCool.3 mph91%29.75 "HgN/A
Weather by CustomWeather, © 2014

See weather overviewHow to use our weather pages